Location: Hicks
(37.9226°N, 89.9954°W)
Time: 08:41:01
(UTC+00:00)

Meteor 1-19 Rocket - Pass Details

Date: 14 December 2025
Orbit: 808 x 924 km, 81.2° (Epoch: 24 January)

Event Time Altitude Azimuth Distance (km) Brightness Sun altitude
Rises 12:30:45 0° 346° (NNW) 3,507 7.0 -7.4°
Reaches altitude 10° 12:33:13 10° 343° (NNW) 2,578 6.3 -7.0°
Maximum altitude 12:39:00 60° 265° (W) 1,043 4.5 -5.9°
Drops below altitude 10° 12:44:52 10° 187° (S) 2,610 7.0 -4.9°
Sets 12:47:22 0° 184° (S) 3,553 7.8 -4.5°
